Change the Weather History Date:

Tuesday, December 4, 2012

  Actual Average (KEYE) Record (KEYE)
Temperature  
Mean Temperature 51 °F 36 °F  
Max Temperature 64 °F 43 °F 69 °F (1998)
Min Temperature 38 °F 29 °F 12 °F (2006)
Degree Days  
Heating Degree Days 14 29  
Month to date heating degree days 115  
Since 1 July heating degree days 1139  
Cooling Degree Days 0 0  
Month to date cooling degree days 0  
Year to date cooling degree days 1058  
Growing Degree Days 1 (Base 50)    
Moisture  
Dew Point 44 °F    
Average Humidity 76    
Maximum Humidity 89    
Minimum Humidity 56    
Precipitation  
Precipitation 0.15 in 0.09 in 0.53 in (1993)
Month to date precipitation 0.34  
Year to date precipitation 38.05  
Sea Level Pressure  
Sea Level Pressure 30.09 in    
Wind  
Wind Speed 12 mph (West)    
Max Wind Speed 20 mph    
Max Gust Speed 26 mph    
Visibility 9 miles    
Events Rain    
T = Trace of Precipitation, MM = Missing Value Source: NWS Daily Summary

Daily Weather History Graph

Daily Weather History Graph

Search for Another Location

Airport or City:

Trip Planner

Search our weather history database for the weather conditions in past years. The results will help you decide how hot, cold, wet, or windy it might be!

Date:

Astronomy

Dec. 04, 2012 Rise Set
Actual Time 7:51 AM EST 5:19 PM EST
Civil Twilight 7:20 AM EST 5:49 PM EST
Nautical Twilight 6:47 AM EST 6:23 PM EST
Astronomical Twilight 6:14 AM EST 6:56 PM EST
Moon 11:06 PM EST (12/4) 11:45 AM EST (12/4)
Length of Visible Light 10h 28m
Length of Day
9h 28m
Waning Gibbous, 69% of the Moon is Illuminated
Dec 4
Waning Gibbous
Dec 6
Last Quarter
Dec 13
New
Dec 20
First Quarter
Dec 28
Full

Hourly Weather History & Observations

Time (EST) Temp. Windchill Dew Point Humidity Pressure Visibility Wind Dir Wind Speed Gust Speed Precip Events Conditions
12:15 AM 62.6 °F - 50.9 °F 66% 30.02 in 10.0 mi SSW 10.4 mph - N/A   Mostly Cloudy
12:35 AM 63.5 °F - 50.0 °F 61% 30.01 in 10.0 mi SSW 13.8 mph - N/A   Overcast
1:15 AM 64.4 °F - 48.4 °F 56% 30.00 in 10.0 mi SSW 17.3 mph 24.2 mph N/A   Overcast
1:35 AM 64.4 °F - 48.2 °F 56% 30.01 in 10.0 mi SSW 19.6 mph 25.3 mph N/A   Overcast
1:55 AM 63.7 °F - 48.4 °F 57% 30.00 in 10.0 mi SSW 15.0 mph 24.2 mph N/A   Overcast
2:15 AM 63.3 °F - 48.6 °F 59% 30.00 in 10.0 mi SSW 17.3 mph 25.3 mph N/A   Mostly Cloudy
2:35 AM 63.0 °F - 48.7 °F 60% 30.00 in 10.0 mi SSW 16.1 mph 21.9 mph N/A   Scattered Clouds
2:55 AM 62.4 °F - 49.1 °F 62% 30.00 in 10.0 mi SSW 13.8 mph - N/A   Clear
3:15 AM 62.4 °F - 49.1 °F 62% 30.00 in 10.0 mi SSW 16.1 mph 21.9 mph N/A   Scattered Clouds
3:35 AM 61.7 °F - 49.3 °F 64% 29.99 in 10.0 mi SSW 15.0 mph 21.9 mph N/A   Scattered Clouds
3:55 AM 61.9 °F - 49.5 °F 64% 29.99 in 10.0 mi SSW 15.0 mph 21.9 mph N/A   Mostly Cloudy
4:15 AM 61.9 °F - 50.0 °F 65% 29.99 in 10.0 mi SSW 16.1 mph 19.6 mph N/A   Mostly Cloudy
4:35 AM 61.7 °F - 50.2 °F 66% 29.99 in 10.0 mi SSW 16.1 mph 21.9 mph N/A   Overcast
4:55 AM 61.9 °F - 50.4 °F 66% 29.99 in 10.0 mi SSW 15.0 mph - N/A   Overcast
5:15 AM 61.7 °F - 50.9 °F 68% 29.99 in 10.0 mi SSW 16.1 mph - N/A   Mostly Cloudy
5:35 AM 61.9 °F - 51.1 °F 68% 29.99 in 10.0 mi SSW 15.0 mph - N/A   Overcast
5:55 AM 61.9 °F - 51.6 °F 69% 29.99 in 10.0 mi SSW 16.1 mph - N/A   Overcast
6:15 AM 62.2 °F - 52.0 °F 69% 30.00 in 10.0 mi SW 13.8 mph 21.9 mph N/A   Overcast
6:35 AM 62.1 °F - 52.2 °F 70% 30.00 in 10.0 mi SW 15.0 mph 20.7 mph N/A   Overcast
6:55 AM 62.1 °F - 52.7 °F 71% 30.00 in 10.0 mi SW 17.3 mph - N/A   Overcast
7:15 AM 62.1 °F - 52.9 °F 72% 30.01 in 10.0 mi SW 12.7 mph - N/A   Overcast
7:35 AM 61.9 °F - 52.9 °F 72% 30.01 in 10.0 mi SW 12.7 mph 18.4 mph N/A   Overcast
7:55 AM 61.7 °F - 53.1 °F 73% 30.02 in 10.0 mi SW 13.8 mph - N/A   Overcast
8:15 AM 60.8 °F - 53.6 °F 77% 30.02 in 10.0 mi WSW 19.6 mph 26.5 mph N/A   Overcast
8:55 AM 59.0 °F - 54.5 °F 85% 30.03 in 7.0 mi WSW 11.5 mph 19.6 mph N/A   Overcast
9:15 AM 59.0 °F - 54.3 °F 84% 30.04 in 7.0 mi WSW 9.2 mph - N/A Rain Light Rain
9:35 AM 52.5 °F - 48.2 °F 85% 30.05 in 2.0 mi NNW 11.5 mph - N/A Rain Rain
9:55 AM 50.9 °F - 47.3 °F 87% 30.06 in 4.0 mi NNW 9.2 mph - N/A   Light Drizzle
10:15 AM 50.2 °F - 46.8 °F 88% 30.07 in 4.0 mi North 9.2 mph - N/A   Overcast
10:35 AM 50.0 °F - 46.8 °F 89% 30.07 in 3.0 mi North 9.2 mph - 0.01 in Rain Light Rain
10:55 AM 49.1 °F - 45.7 °F 88% 30.08 in 5.0 mi North 16.1 mph 20.7 mph 0.02 in Rain Rain
11:15 AM 49.1 °F - 45.5 °F 87% 30.08 in 5.0 mi North 9.2 mph - 0.03 in Rain Light Rain
11:35 AM 47.7 °F - 44.1 °F 87% 30.09 in 7.0 mi North 11.5 mph 19.6 mph 0.05 in Rain Rain
11:55 AM 46.6 °F - 42.6 °F 86% 30.08 in 10.0 mi North 15.0 mph 20.7 mph 0.07 in Rain Light Rain
12:15 PM 46.4 °F 41.9 °F 41.9 °F 84% 30.09 in 7.0 mi North 9.2 mph - 0.03 in Rain Rain
12:35 PM 45.9 °F 40.4 °F 41.5 °F 85% 30.09 in 7.0 mi NNW 11.5 mph - 0.05 in Rain Light Rain
12:55 PM 45.7 °F 41.5 °F 41.2 °F 84% 30.08 in 10.0 mi North 8.1 mph - 0.06 in Rain Light Rain
1:15 PM 46.0 °F 43.1 °F 41.0 °F 83% 30.09 in 10.0 mi North 5.8 mph - N/A Rain Light Rain
1:35 PM 46.4 °F 42.9 °F 41.5 °F 83% 30.09 in 10.0 mi NNW 6.9 mph - N/A   Light Drizzle
1:55 PM 46.6 °F - 41.2 °F 81% 30.09 in 10.0 mi North 9.2 mph - N/A   Overcast
2:15 PM 46.9 °F - 41.2 °F 80% 30.09 in 10.0 mi North 5.8 mph - N/A   Overcast
2:35 PM 47.3 °F - 41.4 °F 80% 30.08 in 10.0 mi North 5.8 mph - N/A   Overcast
2:55 PM 47.7 °F - 41.2 °F 78% 30.09 in 10.0 mi North 5.8 mph - N/A   Overcast
3:15 PM 47.8 °F - 40.6 °F 76% 30.09 in 10.0 mi North 4.6 mph - N/A   Overcast
3:35 PM 48.0 °F - 41.4 °F 78% 30.10 in 10.0 mi NW 4.6 mph - N/A   Overcast
3:55 PM 48.9 °F - 41.0 °F 74% 30.11 in 10.0 mi NNW 4.6 mph - N/A   Overcast
4:15 PM 49.1 °F - 41.5 °F 75% 30.12 in 10.0 mi NNW 8.1 mph - N/A   Overcast
4:35 PM 49.1 °F - 41.2 °F 74% 30.13 in 10.0 mi NW 5.8 mph - N/A   Overcast
4:55 PM 48.6 °F - 41.2 °F 76% 30.14 in 10.0 mi WNW 3.5 mph - N/A   Mostly Cloudy
5:15 PM 47.7 °F - 41.7 °F 80% 30.15 in 10.0 mi WNW 3.5 mph - N/A   Mostly Cloudy
5:55 PM 45.7 °F 44.4 °F 40.1 °F 81% 30.16 in 10.0 mi WNW 3.5 mph - N/A   Scattered Clouds
6:15 PM 44.8 °F 42.4 °F 39.7 °F 82% 30.17 in 10.0 mi West 4.6 mph - N/A   Clear
6:35 PM 44.6 °F 42.2 °F 39.9 °F 84% 30.17 in 10.0 mi West 4.6 mph - N/A   Clear
6:55 PM 44.1 °F 42.5 °F 39.4 °F 84% 30.18 in 10.0 mi West 3.5 mph - N/A   Clear
7:15 PM 43.9 °F 42.3 °F 39.4 °F 84% 30.19 in 10.0 mi West 3.5 mph - N/A   Clear
7:35 PM 43.5 °F 40.9 °F 39.2 °F 85% 30.18 in 10.0 mi West 4.6 mph - N/A   Clear
7:55 PM 44.6 °F 42.2 °F 39.6 °F 82% 30.18 in 10.0 mi West 4.6 mph - N/A   Clear
8:15 PM 43.7 °F 40.3 °F 38.3 °F 81% 30.19 in 10.0 mi West 5.8 mph - N/A   Clear
8:35 PM 43.7 °F 42.1 °F 37.9 °F 80% 30.19 in 10.0 mi West 3.5 mph - N/A   Clear
8:55 PM 41.9 °F 39.0 °F 36.5 °F 81% 30.19 in 10.0 mi West 4.6 mph - N/A   Clear
9:15 PM 41.5 °F 39.6 °F 36.3 °F 82% 30.19 in 10.0 mi West 3.5 mph - N/A   Clear
9:35 PM 40.3 °F - 35.2 °F 82% 30.21 in 10.0 mi Calm Calm - N/A   Clear
9:55 PM 38.7 °F - 34.7 °F 86% 30.21 in 10.0 mi Calm Calm - N/A   Clear
10:15 PM 40.5 °F 38.4 °F 36.0 °F 84% 30.22 in 10.0 mi West 3.5 mph - N/A   Clear
10:35 PM 40.1 °F 36.9 °F 35.6 °F 84% 30.22 in 10.0 mi West 4.6 mph - N/A   Clear
10:55 PM 40.1 °F 35.3 °F 35.2 °F 83% 30.23 in 10.0 mi West 6.9 mph - N/A   Clear
11:15 PM 41.4 °F 36.2 °F 35.1 °F 78% 30.22 in 10.0 mi West 8.1 mph - N/A   Clear
11:35 PM 41.9 °F 36.9 °F 34.9 °F 76% 30.22 in 10.0 mi West 8.1 mph - N/A   Clear
11:55 PM 42.1 °F 37.1 °F 34.5 °F 75% 30.23 in 10.0 mi West 8.1 mph - N/A   Clear